| time (UTC) | temp C | wind direction | speed KPH | gust KPH | rain 1hr cm | rain 24hr cm | rain mn cm | humidity % | barometer mb |
| 20260508013015 | 17 | 245 | 6.4 | 14.5 | 0.00 | 0.00 | 0.00 | 89 | 1013.7 |
| 20260508011513 | 17 | 274 | 8.0 | 17.7 | 0.00 | 0.00 | 0.00 | 87 | 1013.6 |
| 20260508010013 | 18 | 237 | 9.7 | 17.7 | 0.00 | 0.00 | 0.00 | 87 | 1013.7 |
| 20260508004511 | 18 | 217 | 11.3 | 22.5 | 0.00 | 0.00 | 0.00 | 86 | 1013.6 |
| 20260508003011 | 18 | 216 | 11.3 | 20.9 | 0.00 | 0.00 | 0.00 | 86 | 1013.5 |
| 20260508001511 | 18 | 232 | 11.3 | 24.1 | 0.00 | 0.00 | 0.00 | 86 | 1013.5 |
| 20260508000009 | 18 | 267 | 11.3 | 19.3 | 0.00 | 0.00 | 0.00 | 85 | 1013.5 |
| 20260507234508 | 18 | 245 | 8.0 | 19.3 | 0.00 | 0.00 | 0.00 | 85 | 1013.6 |
| 20260507233005 | 18 | 267 | 8.0 | 20.9 | 0.00 | 0.00 | 0.00 | 86 | 1013.7 |
| 20260507231507 | 18 | 224 | 8.0 | 19.3 | 0.00 | 0.00 | 0.00 | 85 | 1013.7 |
| 20260507230005 | 18 | 273 | 9.7 | 19.3 | 0.00 | 0.00 | 0.00 | 86 | 1013.9 |
| 20260507224608 | 18 | 191 | 9.7 | 20.9 | 0.00 | 0.00 | 0.00 | 85 | 1013.9 |
| 20260507223059 | 18 | 232 | 11.3 | 20.9 | 0.00 | 0.00 | 0.00 | 85 | 1014.1 |
| 20260507221556 | 19 | 255 | 9.7 | 17.7 | 0.00 | 0.00 | 0.00 | 84 | 1014.2 |
| 20260507220055 | 19 | 257 | 11.3 | 19.3 | 0.00 | 0.00 | 0.00 | 84 | 1014.4 |
| 20260507214604 | 19 | 159 | 8.0 | 17.7 | 0.00 | 0.00 | 0.00 | 85 | 1014.6 |
| 20260507213105 | 19 | 221 | 6.4 | 16.1 | 0.00 | 0.00 | 0.00 | 82 | 1014.7 |
| 20260507211550 | 20 | 226 | 6.4 | 14.5 | 0.00 | 0.00 | 0.00 | 82 | 1014.7 |
| 20260507210052 | 20 | 150 | 4.8 | 14.5 | 0.00 | 0.00 | 0.00 | 81 | 1014.9 |
| 20260507204557 | 20 | 137 | 6.4 | 12.9 | 0.00 | 0.00 | 0.00 | 81 | 1015.0 |
| 20260507203045 | 20 | 235 | 6.4 | 14.5 | 0.00 | 0.00 | 0.00 | 81 | 1015.1 |
| 20260507201545 | 20 | 215 | 4.8 | 14.5 | 0.00 | 0.00 | 0.00 | 82 | 1015.1 |
| 20260507200042 | 20 | 200 | 8.0 | 14.5 | 0.00 | 0.00 | 0.00 | 79 | 1015.3 |
| 20260507194542 | 20 | 133 | 4.8 | 12.9 | 0.00 | 0.00 | 0.00 | 81 | 1015.4 |
| 20260507193041 | 19 | 257 | 8.0 | 16.1 | 0.00 | 0.00 | 0.00 | 82 | 1015.6 |
| 20260507191540 | 20 | 162 | 6.4 | 12.9 | 0.00 | 0.00 | 0.00 | 81 | 1015.7 |
| 20260507190042 | 20 | 259 | 4.8 | 11.3 | 0.00 | 0.00 | 0.00 | 81 | 1015.8 |
| 20260507184539 | 19 | 232 | 4.8 | 12.9 | 0.00 | 0.00 | 0.00 | 83 | 1016.0 |
| 20260507183040 | 18 | 259 | 4.8 | 11.3 | 0.00 | 0.00 | 0.00 | 84 | 1016.2 |
| 20260507181534 | 18 | 257 | 4.8 | 11.3 | 0.00 | 0.00 | 0.00 | 85 | 1016.2 |
| 20260507180036 | 18 | 255 | 6.4 | 11.3 | 0.00 | 0.00 | 0.00 | 82 | 1016.2 |
| 20260507174538 | 18 | 137 | 4.8 | 11.3 | 0.00 | 0.00 | 0.00 | 83 | 1016.2 |
| 20260507173035 | 18 | 255 | 6.4 | 12.9 | 0.00 | 0.00 | 0.00 | 85 | 1016.3 |
| 20260507171533 | 18 | 255 | 4.8 | 12.9 | 0.00 | 0.00 | 0.00 | 84 | 1016.2 |
| 20260507170034 | 18 | 226 | 4.8 | 11.3 | 0.00 | 0.00 | 0.00 | 83 | 1016.3 |
| 20260507164531 | 18 | 267 | 3.2 | 9.7 | 0.00 | 0.00 | 0.00 | 83 | 1016.3 |
| 20260507163031 | 18 | 204 | 3.2 | 8.0 | 0.00 | 0.00 | 0.00 | 82 | 1016.4 |
| 20260507161529 | 18 | 157 | 3.2 | 8.0 | 0.00 | 0.00 | 0.00 | 82 | 1016.3 |
| 20260507160030 | 18 | 208 | 1.6 | 6.4 | 0.00 | 0.00 | 0.00 | 84 | 1016.3 |
| 20260507154528 | 18 | 219 | 0.0 | 6.4 | 0.00 | 0.00 | 0.00 | 84 | 1016.5 |
| 20260507153028 | 19 | 190 | 1.6 | 4.8 | 0.00 | 0.00 | 0.00 | 81 | 1016.4 |
| 20260507151527 | 20 | 224 | 0.0 | 0.0 | 0.00 | 0.00 | 0.00 | 85 | 1016.5 |
| 20260507150024 | 19 | 225 | 0.0 | 0.0 | 0.00 | 0.00 | 0.00 | 90 | 1016.5 |
| 20260507144521 | 18 | 278 | 0.0 | 0.0 | 0.00 | 0.00 | 0.00 | 95 | 1016.4 |
| 20260507143018 | 17 | 278 | 0.0 | 0.0 | 0.00 | 0.00 | 0.00 | 96 | 1016.3 |
| 20260507141516 | 16 | 278 | 0.0 | 0.0 | 0.00 | 0.00 | 0.00 | 97 | 1016.1 |
| 20260507140017 | 16 | 278 | 0.0 | 0.0 | 0.00 | 0.00 | 0.00 | 98 | 1016.0 |
| 20260507134514 | 15 | 278 | 0.0 | 0.0 | 0.00 | 0.00 | 0.00 | 97 | 1015.9 |
| 20260507133010 | 13 | 278 | 0.0 | 0.0 | 0.00 | 0.00 | 0.00 | 97 | 1015.7 |
| 20260507131509 | 12 | 278 | 0.0 | 0.0 | 0.00 | 0.00 | 0.00 | 97 | 1015.6 |
| 20260507130009 | 12 | 278 | 0.0 | 0.0 | 0.00 | 0.00 | 0.00 | 97 | 1015.5 |
| 20260507124508 | 12 | 278 | 0.0 | 0.0 | 0.00 | 0.00 | 0.00 | 97 | 1015.5 |
| 20260507123009 | 12 | 278 | 0.0 | 0.0 | 0.00 | 0.00 | 0.00 | 97 | 1015.4 |
| 20260507121505 | 12 | 278 | 0.0 | 0.0 | 0.00 | 0.00 | 0.00 | 96 | 1015.4 |
| 20260507120003 | 12 | 278 | 0.0 | 0.0 | 0.00 | 0.00 | 0.00 | 96 | 1015.5 |
| 20260507114502 | 12 | 278 | 0.0 | 0.0 | 0.00 | 0.00 | 0.00 | 96 | 1015.5 |
| 20260507113001 | 12 | 278 | 0.0 | 0.0 | 0.00 | 0.00 | 0.00 | 96 | 1015.6 |
| 20260507111559 | 12 | 278 | 0.0 | 0.0 | 0.00 | 0.00 | 0.00 | 96 | 1015.6 |
| 20260507110058 | 12 | 278 | 0.0 | 0.0 | 0.00 | 0.00 | 0.00 | 96 | 1015.7 |
| 20260507104555 | 12 | 278 | 0.0 | 0.0 | 0.00 | 0.00 | 0.00 | 96 | 1015.8 |
| 20260507103055 | 12 | 278 | 0.0 | 0.0 | 0.00 | 0.00 | 0.00 | 96 | 1015.9 |
| 20260507101553 | 13 | 278 | 0.0 | 0.0 | 0.00 | 0.00 | 0.00 | 96 | 1015.9 |
| 20260507100051 | 13 | 278 | 0.0 | 0.0 | 0.00 | 0.00 | 0.00 | 95 | 1015.9 |
| 20260507094553 | 13 | 278 | 0.0 | 0.0 | 0.00 | 0.00 | 0.00 | 95 | 1016.0 |
| 20260507093047 | 13 | 278 | 0.0 | 0.0 | 0.00 | 0.00 | 0.00 | 95 | 1016.1 |
| 20260507091545 | 13 | 278 | 0.0 | 0.0 | 0.00 | 0.00 | 0.00 | 95 | 1016.3 |
| 20260507090044 | 13 | 278 | 0.0 | 0.0 | 0.00 | 0.00 | 0.00 | 94 | 1016.5 |
| 20260507084541 | 13 | 278 | 0.0 | 0.0 | 0.00 | 0.00 | 0.00 | 95 | 1016.6 |
| 20260507083046 | 14 | 278 | 0.0 | 0.0 | 0.00 | 0.00 | 0.00 | 95 | 1016.7 |
| 20260507081537 | 14 | 278 | 0.0 | 0.0 | 0.00 | 0.00 | 0.00 | 95 | 1016.8 |
| 20260507080035 | 14 | 278 | 0.0 | 1.6 | 0.00 | 0.00 | 0.00 | 95 | 1016.8 |
| 20260507074535 | 14 | 278 | 0.0 | 0.0 | 0.00 | 0.00 | 0.00 | 95 | 1016.8 |
| 20260507073033 | 14 | 278 | 0.0 | 0.0 | 0.00 | 0.00 | 0.00 | 95 | 1016.9 |
| 20260507071544 | 14 | 278 | 0.0 | 0.0 | 0.00 | 0.00 | 0.00 | 95 | 1016.9 |
| 20260507070030 | 15 | 278 | 0.0 | 0.0 | 0.00 | 0.00 | 0.00 | 94 | 1016.9 |
| 20260507064528 | 15 | 278 | 0.0 | 0.0 | 0.00 | 0.00 | 0.00 | 94 | 1017.1 |
| 20260507063032 | 15 | 278 | 0.0 | 0.0 | 0.00 | 0.00 | 0.00 | 94 | 1017.1 |
| 20260507061527 | 15 | 278 | 0.0 | 0.0 | 0.00 | 0.00 | 0.00 | 94 | 1017.1 |
| 20260507060025 | 15 | 278 | 0.0 | 0.0 | 0.00 | 0.00 | 0.00 | 93 | 1017.2 |
| 20260507054524 | 15 | 278 | 0.0 | 4.8 | 0.00 | 0.00 | 0.00 | 93 | 1017.1 |
| 20260507053025 | 15 | 283 | 1.6 | 8.0 | 0.00 | 0.00 | 0.00 | 93 | 1017.1 |
| 20260507051524 | 16 | 260 | 0.0 | 11.3 | 0.00 | 0.00 | 0.00 | 93 | 1017.0 |
| 20260507050023 | 16 | 263 | 1.6 | 8.0 | 0.00 | 0.00 | 0.00 | 93 | 1017.0 |
| 20260507044522 | 16 | 288 | 1.6 | 6.4 | 0.00 | 0.00 | 0.00 | 92 | 1017.0 |
| 20260507043031 | 16 | 307 | 3.2 | 11.3 | 0.00 | 0.00 | 0.00 | 91 | 1017.0 |
| 20260507041524 | 16 | 260 | 1.6 | 4.8 | 0.00 | 0.00 | 0.00 | 91 | 1016.8 |
| 20260507040020 | 16 | 257 | 1.6 | 4.8 | 0.00 | 0.00 | 0.00 | 90 | 1016.8 |
| 20260507034520 | 16 | 285 | 3.2 | 6.4 | 0.00 | 0.00 | 0.00 | 89 | 1016.6 |
| 20260507033020 | 16 | 241 | 1.6 | 4.8 | 0.00 | 0.00 | 0.00 | 89 | 1016.4 |
| 20260507031519 | 16 | 283 | 3.2 | 11.3 | 0.00 | 0.00 | 0.00 | 89 | 1016.3 |
| 20260507030019 | 16 | 264 | 1.6 | 11.3 | 0.00 | 0.00 | 0.00 | 89 | 1016.1 |
| 20260507024518 | 16 | 262 | 4.8 | 14.5 | 0.00 | 0.00 | 0.00 | 88 | 1016.0 |
| 20260507023018 | 17 | 257 | 4.8 | 14.5 | 0.00 | 0.00 | 0.00 | 87 | 1015.8 |
| 20260507021517 | 17 | 262 | 4.8 | 12.9 | 0.00 | 0.00 | 0.00 | 85 | 1015.7 |
| 20260507020016 | 17 | 309 | 6.4 | 19.3 | 0.00 | 0.00 | 0.00 | 84 | 1015.6 |
| 20260507014516 | 17 | 293 | 4.8 | 14.5 | 0.00 | 0.00 | 0.00 | 85 | 1015.5 |